Wind_Speed
42 44 46 46 45 44 43 44 43 42 40 39 37 36 34 32 30 30 30 29 29 28 29 29 28 26 25 25 25 24 23 22 22 21 22 22 21 21 21 21 21 20 20
45 46 48 49 49 49 49 47 46 45 44 42 41 39 38 36 34 32 31 31 32 31 30 30 29 28 27 27 27 27 26 25 24 23 24 24 24 24 24 24 23 23 22
44 46 48 48 48 48 50 49 47 46 46 45 43 42 40 38 37 36 35 34 34 34 32 29 28 29 29 29 30 29 28 27 27 26 25 25 25 26 25 26 26 25 24
41 43 43 45 46 46 47 48 47 46 44 45 44 42 41 40 38 38 37 36 36 36 34 32 31 31 31 31 31 31 30 29 28 27 26 26 26 26 26 27 27 26 26
38 38 37 38 39 41 42 43 43 44 43 43 43 41 39 39 39 39 39 38 38 36 35 34 33 33 31 30 30 31 32 31 30 29 28 27 27 26 27 27 28 28 27
31 31 31 31 32 33 35 36 37 37 37 39 40 39 39 38 37 37 37 37 37 37 35 35 34 33 32 31 31 31 32 32 32 31 30 29 29 29 28 28 29 29 29
23 23 23 24 23 24 25 27 29 30 31 33 35 36 37 36 36 35 35 35 35 34 34 33 33 33 33 32 32 31 31 32 32 32 31 30 30 30 30 30 31 31 31
19 16 15 16 16 16 18 20 23 24 25 27 29 31 31 32 32 31 32 32 32 32 32 32 32 32 33 34 34 34 33 33 33 32 33 32 30 30 30 31 32 31 32
16 13 11 11 11 11 12 13 15 18 20 22 24 26 27 27 28 28 29 29 30 31 32 32 33 34 35 35 35 35 34 33 32 32 33 34 33 32 32 32 32 33 32
15 13 10 10 8 8 7 7 9 12 14 16 18 20 22 23 24 25 26 27 28 30 31 32 33 34 34 34 34 35 34 34 35 34 34 33 33 32 33 33 33 33 32
15 13 11 10 8 6 5 5 5 6 9 11 13 15 16 18 19 21 23 25 26 27 29 30 31 31 31 31 32 32 32 33 33 32 31 31 31 30 30 30 31 31 30
18 16 14 13 12 10 8 7 6 4 3 3 5 6 8 11 13 15 16 18 20 22 24 26 26 27 28 29 29 29 30 29 28 28 28 29 28 28 29 29 29 29 28
20 19 19 17 16 15 14 13 11 10 8 7 5 3 3 4 6 9 11 12 14 16 18 20 21 22 23 24 24 25 25 25 25 25 25 25 25 25 24 24 24 24 24
22 22 21 21 20 18 17 16 15 13 12 10 8 7 6 5 5 6 6 7 9 10 12 14 16 16 17 18 20 20 21 22 22 22 21 21 20 20 20 20 20 20 19
22 22 22 21 21 20 19 19 18 17 15 14 13 11 10 9 8 7 7 7 7 7 8 9 10 11 13 15 16 17 18 18 18 18 18 17 17 18 18 17 17 16 15
22 22 22 22 21 21 20 20 20 19 18 17 16 15 13 12 11 10 10 9 8 8 9 9 9 10 11 12 13 14 15 15 15 15 14 15 15 15 15 14 14 13 13
23 23 23 23 22 22 22 21 21 20 20 19 18 18 17 15 14 13 13 12 11 11 10 10 10 11 12 12 12 13 14 15 16 17 16 16 15 14 14 13 13 12 12
21 22 23 22 22 22 22 22 21 21 21 20 20 19 18 18 17 16 15 14 13 13 12 11 11 10 10 11 12 13 14 15 16 16 17 16 16 16 15 14 13 13 13
20 20 21 21 22 22 22 22 22 22 22 21 21 20 20 20 20 19 19 17 16 15 14 13 12 11 10 10 10 12 13 15 16 15 15 16 15 15 14 14 14 13 13
19 19 19 20 21 21 21 21 21 21 22 22 22 21 21 21 22 22 21 20 20 18 17 15 13 12 10 9 9 9 11 12 13 14 14 15 15 15 14 14 14 13 13
17 18 18 18 19 19 20 20 20 21 21 21 22 22 23 23 23 23 23 23 22 21 19 17 15 13 10 8 7 7 7 8 10 12 12 12 13 13 13 13 13 12 12
16 17 17 17 17 18 18 19 20 20 20 21 21 22 23 24 24 24 25 25 24 23 22 20 18 15 12 9 6 3 2 3 6 8 9 10 10 11 11 11 11 11 11
15 16 16 16 16 17 17 18 19 19 19 20 21 22 23 24 24 25 26 26 26 25 24 23 21 18 15 13 10 7 5 4 5 6 8 8 9 10 10 10 10 10 9
15 15 16 16 16 16 16 17 18 18 19 19 21 22 22 23 24 25 26 26 27 26 26 25 23 21 19 17 15 12 10 10 9 9 9 10 10 10 10 9 9 8 8
14 14 15 15 15 15 15 16 17 18 18 19 20 21 22 23 23 24 25 26 27 27 26 26 25 24 22 20 18 17 15 14 13 12 12 11 11 10 10 10 9 9 8
12 13 13 14 14 15 15 15 16 17 18 19 20 21 22 22 23 24 25 25 25 26 26 26 26 25 24 23 21 20 18 17 16 15 15 14 14 13 12 12 11 10 10
Wind_Direction
271 269 266 264 262 260 258 254 251 250 249 249 249 250 250 252 253 252 252 255 256 260 264 264 263 265 266 267 267 266 264 262 260 259 259 261 260 258 259 260 261 262 262
273 271 269 266 264 262 259 257 253 251 249 249 250 251 252 254 254 254 256 258 259 260 263 264 264 264 267 268 265 264 263 262 260 258 257 258 257 257 259 260 260 261 260
275 273 270 269 266 262 260 257 255 252 250 248 249 251 252 254 256 257 258 260 262 263 263 266 268 265 265 265 261 258 259 259 258 258 256 257 257 257 258 259 259 259 260
280 278 274 270 267 264 261 258 257 255 253 251 250 251 253 255 257 257 258 259 261 263 265 267 268 266 266 267 261 255 254 255 256 256 255 255 256 257 258 259 258 258 260
284 281 278 276 272 267 263 260 259 257 256 254 252 252 253 255 256 257 259 260 261 261 263 264 266 267 267 266 262 258 255 254 253 253 252 253 255 257 259 258 257 257 257
289 284 282 281 278 272 265 262 259 259 257 256 255 254 255 256 256 256 256 257 258 259 262 263 264 265 265 266 264 262 257 255 253 251 252 252 254 256 258 257 257 256 255
302 293 286 286 286 278 266 260 257 257 256 255 255 255 255 256 256 256 256 257 257 259 259 261 263 266 264 263 263 261 259 256 255 251 251 253 254 254 255 256 256 256 255
316 309 300 295 292 285 273 265 257 254 254 254 254 253 254 256 257 257 256 256 256 257 258 260 263 263 264 267 266 263 265 261 258 254 253 253 252 253 255 256 255 255 255
337 330 325 318 310 302 289 273 260 254 253 252 253 253 255 258 259 259 258 257 257 257 258 261 263 264 265 267 265 262 263 262 260 258 255 254 254 256 256 255 256 256 256
354 352 350 344 332 326 314 292 271 258 255 256 256 258 259 260 260 258 257 258 258 259 260 262 263 263 265 265 263 262 262 259 259 259 257 255 254 257 257 257 258 258 258
9 11 7 9 16 17 15 349 317 283 272 266 264 263 261 261 262 261 259 259 259 261 262 263 263 263 263 262 261 261 259 258 255 254 256 255 256 258 256 256 256 255 257
26 30 34 37 38 41 45 37 33 24 359 317 293 276 269 266 266 265 264 263 263 264 264 264 263 261 260 259 257 256 254 253 252 253 256 255 256 256 254 257 257 256 256
44 45 45 47 51 52 53 52 51 51 50 42 28 6 331 299 283 279 274 272 270 268 266 263 261 260 258 256 255 254 252 252 252 253 253 253 254 252 252 253 254 253 253
49 50 51 52 56 56 54 53 53 53 54 52 45 35 24 11 355 337 313 295 286 280 277 270 263 260 257 256 252 249 249 249 249 248 247 247 247 248 246 246 247 248 248
51 51 53 53 54 54 53 52 52 52 51 50 49 44 36 29 18 6 356 342 328 315 305 291 277 268 263 261 258 252 246 244 242 241 241 241 243 243 240 240 242 242 243
53 53 54 54 53 53 53 52 52 50 50 49 48 45 42 37 32 25 15 3 350 335 324 313 300 289 278 270 262 253 250 243 239 237 238 239 239 239 238 235 235 236 240
55 55 54 55 54 53 53 52 50 50 50 48 47 46 43 40 34 27 18 11 3 352 340 328 311 297 284 273 263 254 250 247 244 242 240 239 237 236 234 231 231 233 235
55 54 54 53 52 51 50 49 50 50 49 47 45 42 40 37 32 26 20 12 4 357 349 339 328 314 297 280 269 262 256 251 246 244 241 239 237 236 235 235 234 235 238
56 54 53 51 50 49 48 47 47 47 46 44 42 41 39 36 33 28 22 17 11 4 356 346 337 326 313 297 283 268 258 252 248 244 239 236 232 229 229 230 233 236 238
54 53 51 49 48 47 46 45 44 44 44 43 42 41 38 36 32 28 24 20 15 11 5 358 349 340 327 311 295 278 264 254 247 243 238 233 229 228 225 227 229 231 235
50 49 47 45 44 43 42 41 41 41 42 42 41 40 37 33 29 27 25 22 19 16 12 7 1 356 348 334 314 292 271 257 246 237 232 228 221 218 219 220 221 225 227
46 44 43 42 42 41 41 40 39 39 39 39 38 36 34 32 30 28 26 25 24 22 20 19 17 16 14 13 7 348 292 237 219 214 213 212 212 208 206 207 210 214 218
41 40 39 39 39 41 40 38 38 37 37 35 34 32 32 31 30 29 28 28 28 28 28 29 31 33 36 40 44 52 68 104 143 160 170 174 178 180 183 188 194 199 204
37 37 37 37 38 39 38 38 36 35 34 32 31 30 30 30 30 30 30 31 31 32 34 36 38 42 46 51 56 64 75 89 106 123 136 145 150 152 157 164 170 174 176
36 35 35 35 36 36 36 36 36 35 33 31 30 29 29 29 30 30 31 32 34 36 38 40 44 46 50 55 60 67 76 84 93 104 114 122 130 133 136 141 147 149 149
31 31 31 32 33 33 33 32 33 33 32 30 30 30 29 29 30 31 32 33 36 39 41 44 47 50 53 57 63 69 75 81 88 96 103 108 114 119 122 125 127 129 132
Height
5850 5849 5849 5849 5849 5849 5850 5851 5852 5854 5855 5857 5858 5859 5860 5861 5862 5863 5864 5865 5867 5868 5868 5870 5871 5872 5873 5875 5876 5877 5878 5879 5880 5881 5881 5882 5883 5884 5885 5887 5888 5889 5890
5838 5837 5836 5835 5835 5836 5837 5838 5839 5842 5844 5847 5849 5850 5852 5854 5855 5856 5857 5858 5859 5861 5862 5863 5864 5866 5867 5868 5869 5870 5871 5873 5874 5875 5876 5877 5878 5878 5879 5880 5882 5883 5884
5827 5825 5822 5821 5820 5821 5823 5825 5827 5829 5832 5835 5838 5840 5843 5845 5847 5849 5850 5851 5852 5854 5855 5857 5857 5858 5859 5860 5862 5863 5865 5866 5867 5868 5870 5871 5872 5872 5874 5874 5875 5876 5877
5814 5812 5809 5808 5807 5807 5809 5811 5814 5817 5820 5823 5827 5830 5833 5836 5838 5840 5842 5844 5845 5847 5848 5849 5850 5851 5852 5853 5854 5856 5857 5858 5860 5861 5862 5864 5865 5866 5867 5868 5868 5869 5871
5803 5800 5798 5797 5795 5795 5796 5799 5802 5805 5809 5812 5816 5820 5823 5827 5829 5831 5833 5835 5837 5839 5840 5842 5843 5844 5845 5846 5847 5848 5849 5851 5852 5853 5855 5856 5857 5858 5860 5861 5862 5863 5864
5794 5791 5789 5787 5785 5784 5785 5788 5791 5795 5798 5802 5806 5810 5813 5817 5820 5822 5824 5826 5828 5830 5832 5834 5835 5836 5837 5838 5839 5840 5841 5843 5844 5845 5847 5848 5850 5851 5852 5854 5855 5856 5858
5786 5783 5781 5779 5778 5776 5777 5779 5782 5785 5789 5793 5796 5800 5804 5808 5811 5813 5815 5818 5820 5821 5823 5825 5826 5827 5829 5830 5831 5832 5833 5834 5835 5837 5839 5840 5842 5843 5844 5846 5847 5849 5850
5782 5779 5776 5775 5773 5772 5772 5773 5775 5778 5781 5785 5789 5792 5796 5799 5802 5804 5807 5809 5811 5813 5815 5816 5818 5819 5820 5821 5821 5822 5824 5825 5827 5828 5830 5831 5833 5835 5836 5838 5839 5841 5842
5781 5777 5774 5773 5771 5770 5769 5770 5771 5773 5776 5779 5782 5785 5788 5791 5794 5796 5798 5801 5803 5804 5806 5808 5809 5810 5811 5811 5812 5813 5815 5816 5818 5819 5821 5823 5824 5826 5828 5829 5831 5833 5834
5781 5777 5774 5772 5770 5769 5768 5768 5769 5771 5773 5775 5777 5779 5782 5784 5786 5788 5791 5793 5794 5796 5797 5798 5800 5801 5802 5802 5803 5805 5806 5807 5809 5810 5812 5813 5815 5818 5819 5821 5822 5824 5825
5782 5778 5776 5773 5771 5770 5769 5768 5769 5769 5771 5772 5773 5775 5777 5779 5780 5781 5783 5785 5786 5787 5789 5790 5790 5792 5792 5793 5794 5795 5797 5798 5800 5801 5803 5805 5807 5809 5811 5812 5813 5815 5817
5784 5781 5778 5775 5773 5772 5771 5770 5770 5769 5770 5771 5771 5772 5773 5774 5776 5776 5777 5778 5779 5780 5780 5781 5782 5783 5783 5784 5786 5787 5789 5790 5792 5793 5795 5797 5799 5801 5803 5804 5806 5807 5809
5788 5785 5781 5779 5777 5776 5775 5774 5773 5772 5771 5771 5771 5772 5772 5772 5773 5773 5773 5774 5774 5774 5774 5775 5775 5776 5776 5777 5778 5779 5781 5782 5784 5786 5788 5790 5792 5793 5795 5797 5799 5801 5802
5793 5790 5787 5784 5782 5780 5779 5777 5776 5775 5774 5773 5773 5773 5772 5772 5771 5771 5771 5770 5770 5770 5769 5769 5769 5769 5770 5771 5772 5773 5775 5776 5778 5779 5781 5783 5785 5787 5789 5791 5793 5795 5797
5798 5796 5793 5790 5788 5786 5784 5782 5780 5778 5777 5776 5775 5774 5773 5772 5772 5771 5770 5769 5768 5767 5766 5766 5765 5765 5765 5765 5766 5767 5769 5771 5772 5774 5776 5778 5780 5782 5784 5786 5788 5791 5793
5804 5801 5798 5796 5793 5791 5789 5787 5785 5783 5781 5780 5778 5776 5775 5774 5772 5771 5769 5768 5766 5765 5764 5763 5762 5761 5761 5761 5762 5763 5764 5765 5767 5768 5770 5772 5775 5777 5779 5782 5784 5786 5789
5810 5807 5804 5802 5799 5797 5794 5792 5790 5788 5785 5783 5781 5779 5777 5776 5774 5772 5769 5767 5765 5763 5761 5760 5758 5758 5757 5757 5757 5757 5759 5760 5762 5763 5765 5767 5770 5772 5775 5777 5780 5783 5785
5815 5812 5810 5807 5805 5802 5800 5797 5795 5792 5790 5787 5785 5782 5780 5778 5775 5773 5770 5767 5764 5762 5759 5757 5755 5754 5753 5752 5752 5752 5753 5755 5756 5758 5760 5763 5765 5768 5771 5773 5776 5778 5781
5820 5818 5815 5813 5810 5807 5805 5802 5799 5797 5794 5791 5788 5786 5783 5780 5777 5774 5771 5767 5764 5761 5757 5755 5752 5750 5748 5747 5747 5747 5748 5749 5750 5752 5755 5758 5760 5763 5766 5769 5772 5774 5777
5825 5823 5820 5818 5815 5812 5809 5807 5804 5801 5798 5795 5792 5789 5786 5783 5780 5776 5772 5768 5764 5760 5756 5752 5749 5747 5745 5743 5742 5742 5742 5743 5745 5746 5749 5752 5755 5758 5761 5765 5767 5770 5773
5829 5827 5825 5822 5819 5817 5814 5811 5808 5805 5802 5799 5796 5793 5790 5786 5782 5778 5774 5769 5764 5760 5755 5751 5747 5744 5741 5740 5738 5738 5738 5738 5739 5741 5744 5747 5750 5754 5757 5760 5763 5766 5769
5833 5831 5828 5826 5823 5821 5818 5815 5812 5809 5806 5803 5800 5797 5793 5789 5785 5781 5776 5771 5766 5760 5755 5750 5746 5742 5740 5737 5736 5735 5734 5735 5736 5738 5741 5744 5747 5750 5754 5757 5760 5763 5765
5837 5834 5832 5829 5827 5824 5821 5819 5816 5813 5810 5807 5804 5800 5797 5793 5788 5784 5779 5774 5768 5763 5757 5752 5747 5743 5740 5738 5736 5735 5734 5734 5735 5737 5740 5743 5746 5749 5752 5755 5758 5760 5763
5840 5837 5835 5832 5830 5827 5825 5822 5819 5816 5813 5810 5807 5803 5800 5796 5791 5787 5782 5777 5771 5766 5761 5756 5751 5747 5744 5741 5739 5737 5737 5737 5737 5739 5741 5744 5746 5749 5752 5754 5757 5759 5762
5842 5840 5837 5835 5833 5830 5828 5825 5822 5819 5817 5813 5810 5807 5803 5799 5795 5790 5786 5781 5775 5770 5765 5761 5756 5753 5749 5746 5744 5742 5741 5741 5741 5742 5744 5746 5748 5751 5753 5755 5758 5760 5762
5844 5842 5840 5837 5835 5833 5830 5828 5825 5822 5820 5816 5813 5810 5806 5802 5798 5794 5789 5785 5780 5776 5771 5767 5763 5759 5756 5752 5750 5748 5747 5746 5746 5747 5748 5750 5751 5753 5755 5757 5759 5762 5764